Flag for Russia Weather past 2 weeks in Barnaul, Russia

Now
50 °F

Partly sunny.


Feels Like: 47 °F
Forecast: 49 / 61 °F
Wind: 8 mph from South

Location: Barnaul Airport

Current Time: May 25, 2015 at 9:33:33 AM

Latest Report: May 25, 2015 at 8:30 AM


Visibility: N/A

Pressure: 29.89 "Hg

Humidity: 71%

Dew point: 41 °F

Location of BarnaulLocation

Historic Weather in Barnaul — Graph

°F

Barnaul temperature yesterday

Maximum temperature yesterday: 59 °F (at 4:00 PM)
Minimum temperature yesterday: 43 °F (at 3:00 AM)
Average temperature yesterday: 50 °F

Past Weeks' High & Low Weather Summary

 TemperatureHumidityPressure
High81 °F (May 19, 2:30 PM)94% (May 17, 5:00 PM)30.12 "Hg (May 17, 5:00 PM)
Low41 °F (May 13, 4:30 AM)16% (May 15, 4:30 PM)29.59 "Hg (May 17, 1:30 PM)
Average59 °F52%29.87 "Hg
* Reported May 10 8:00 AM — May 25 8:00 AM, Barnaul, Weather by CustomWeather, © 2015

Note: Actual official high and low records may vary slightly from our data, if they occured in-between our weather recording intervals... More about our weather records

Advertising

Barnaul weather history for previous 24 hours

 ConditionsComfort  
Time TempWeatherWind HumidityBarometerVisibility
8:00 AM
Mon, May 25
50 °FPartly sunny.8 mph71%29.89 "HgN/A
7:30 AM48 °FPartly sunny.8 mph82%29.89 "HgN/A
7:00 AM48 °FPartly sunny.8 mph82%29.89 "HgN/A
6:30 AM48 °FScattered clouds.8 mph82%29.89 "HgN/A
6:00 AM48 °FScattered clouds.8 mph82%29.89 "HgN/A
5:30 AM46 °FScattered clouds.6 mph87%29.92 "HgN/A
5:00 AM46 °FScattered clouds.6 mph82%29.89 "HgN/A
4:30 AM46 °FLight rain. Partly sunny.8 mph82%29.92 "HgN/A
4:00 AM46 °FPassing clouds.8 mph82%29.89 "HgN/A
3:30 AM46 °FPassing clouds.8 mph82%29.89 "HgN/A
3:00 AM46 °FPassing clouds.8 mph82%29.92 "HgN/A
2:30 AM46 °FPassing clouds.8 mph82%29.92 "HgN/A
2:00 AM46 °FPassing clouds.6 mph82%29.89 "HgN/A
1:30 AM46 °FPassing clouds.8 mph82%29.92 "HgN/A
1:00 AM48 °FPassing clouds.8 mph76%29.92 "HgN/A
12:30 AM48 °FPassing clouds.10 mph76%29.92 "HgN/A
12:00 AM48 °FPassing clouds.10 mph82%29.92 "HgN/A
11:30 PM
Sun, May 24
48 °FPassing clouds.8 mph82%29.92 "HgN/A
11:00 PM48 °FPassing clouds.8 mph87%29.92 "HgN/A
10:30 PM50 °FPassing clouds.6 mph82%29.92 "HgN/A
10:00 PM50 °FPassing clouds.6 mph82%29.92 "HgN/A
9:30 PM50 °FPassing clouds.6 mph82%29.92 "HgN/A
9:00 PM52 °FPassing clouds.6 mph77%29.92 "HgN/A
8:30 PM52 °FScattered clouds.6 mph77%29.92 "HgN/A
8:00 PM52 °FPassing clouds.8 mph77%29.92 "HgN/A
7:30 PM52 °FPassing clouds.8 mph72%29.92 "HgN/A
7:00 PM54 °FPassing clouds.8 mph72%29.89 "HgN/A
6:30 PM52 °FPartly sunny.8 mph77%29.89 "HgN/A
6:00 PM54 °FPartly sunny.3 mph72%29.89 "HgN/A
5:30 PM52 °FPartly sunny.6 mph77%29.89 "HgN/A
5:00 PM50 °FSprinkles. Broken clouds.8 mph82%29.89 "HgN/A
4:30 PM55 °FSprinkles. Partly sunny.10 mph59%29.89 "HgN/A
4:00 PM59 °FPartly sunny.10 mph51%29.89 "HgN/A
3:30 PM57 °FPartly sunny.13 mph55%29.89 "HgN/A
3:00 PM57 °FPartly sunny.10 mph55%29.86 "HgN/A
2:30 PM54 °FPartly sunny.8 mph58%29.86 "HgN/A
2:00 PM55 °FPartly sunny.10 mph55%29.86 "HgN/A
1:30 PM54 °FPartly sunny.8 mph58%29.89 "HgN/A
1:00 PM54 °FPartly sunny.8 mph63%29.89 "HgN/A
12:30 PM52 °FPartly sunny.8 mph62%29.89 "HgN/A
12:00 PM54 °FPartly sunny.10 mph63%29.89 "HgN/A
11:30 AM52 °FPartly sunny.8 mph67%29.89 "HgN/A
11:00 AM50 °FPartly sunny.8 mph71%29.89 "HgN/A
10:30 AM50 °FPartly sunny.10 mph67%29.86 "HgN/A
10:00 AM52 °FPartly sunny.10 mph62%29.86 "HgN/A
9:30 AM50 °FPartly sunny.10 mph67%29.86 "HgN/A
9:00 AM50 °FPartly sunny.13 mph67%29.86 "HgN/A
Weather by CustomWeather, © 2015

See weather overviewHow to use our weather pages